TimePST,TemperatureF,Dew PointF,Humidity,Sea Level PressureIn,VisibilityMPH,Wind Direction,Wind SpeedMPH,Gust SpeedMPH,PrecipitationIn,Events,Conditions,WindDirDegrees,DateUTC
12:58 AM,46.4,42.6,87,30.15,10.0,NNW,6.9,-,N/A,,Clear,330,2013-02-15 08:58:00
1:58 AM,48.0,45.9,92,30.14,10.0,NW,3.5,-,N/A,,Clear,310,2013-02-15 09:58:00
2:58 AM,46.8,43.5,88,30.13,10.0,NW,4.6,-,N/A,,Clear,320,2013-02-15 10:58:00
3:58 AM,46.6,41.5,83,30.13,10.0,Calm,Calm,-,N/A,,Clear,0,2013-02-15 11:58:00
4:58 AM,45.3,39.4,80,30.13,10.0,SW,4.6,-,N/A,,Clear,230,2013-02-15 12:58:00
5:58 AM,43.2,40.5,90,30.14,10.0,East,2.3,-,N/A,,Clear,90,2013-02-15 13:58:00
6:58 AM,54.5,32.9,44,30.15,10.0,NNE,5.8,-,N/A,,Partly Cloudy,20,2013-02-15 14:58:00
7:58 AM,62.2,34.9,36,30.17,10.0,NE,6.9,-,N/A,,Partly Cloudy,40,2013-02-15 15:58:00
8:58 AM,71.1,33.3,25,30.19,10.0,NE,5.8,-,N/A,,Partly Cloudy,50,2013-02-15 16:58:00
9:58 AM,75.7,27.0,16,30.18,10.0,East,11.5,-,N/A,,Scattered Clouds,100,2013-02-15 17:58:00
10:44 AM,78.8,26.6,15,30.17,10.0,NNE,12.7,20.7,N/A,,Scattered Clouds,20,2013-02-15 18:44:00
10:58 AM,76.5,31.6,19,30.18,10.0,NNW,9.2,-,N/A,,Scattered Clouds,330,2013-02-15 18:58:00
11:58 AM,78.8,27.5,15,30.16,10.0,NE,15.0,19.6,N/A,,Mostly Cloudy,50,2013-02-15 19:58:00
12:58 PM,81.1,27.1,14,30.14,10.0,ENE,18.4,21.9,N/A,,Mostly Cloudy,60,2013-02-15 20:58:00
1:58 PM,80.6,27.3,14,30.12,10.0,East,12.7,-,N/A,,Mostly Cloudy,80,2013-02-15 21:58:00
2:58 PM,81.3,27.0,14,30.11,10.0,ENE,11.5,-,N/A,,Mostly Cloudy,70,2013-02-15 22:58:00
3:58 PM,79.9,24.3,13,30.12,10.0,East,10.4,-,N/A,,Mostly Cloudy,80,2013-02-15 23:58:00
4:58 PM,76.6,25.2,15,30.13,10.0,ENE,8.1,-,N/A,,Mostly Cloudy,60,2013-02-16 00:58:00
5:58 PM,72.3,22.3,15,30.14,10.0,East,4.6,-,N/A,,Mostly Cloudy,90,2013-02-16 01:58:00
6:58 PM,66.9,33.3,29,30.16,10.0,NE,2.3,-,N/A,,Scattered Clouds,40,2013-02-16 02:58:00
7:58 PM,60.4,37.8,43,30.17,10.0,South,2.3,-,N/A,,Scattered Clouds,180,2013-02-16 03:58:00
8:58 PM,56.5,37.9,50,30.18,10.0,Calm,Calm,-,N/A,,Partly Cloudy,0,2013-02-16 04:58:00
9:58 PM,59.9,28.9,31,30.18,10.0,NE,8.1,-,N/A,,Scattered Clouds,40,2013-02-16 05:58:00
10:58 PM,61.5,24.4,24,30.17,10.0,NNE,9.2,-,N/A,,Clear,30,2013-02-16 06:58:00
11:58 PM,60.6,23.9,25,30.16,10.0,North,5.8,-,N/A,,Clear,360,2013-02-16 07:58:00